Time,TemperatureF,DewpointF,PressureIn,WindDirection,WindDirectionDegrees,WindSpeedMPH,WindSpeedGustMPH,Humidity,HourlyPrecipIn,Conditions,Clouds,dailyrainin,SolarRadiationWatts/m^2,SoftwareType,DateUTC
2013-05-06 00:00:00,57.8,51.3,29.95,SE,126,0.0,0.0,79,0.00,,,0.00,0,Wunderground v.1.15,2013-05-06 07:00:00,
2013-05-06 00:05:00,57.7,51.2,29.95,SE,126,0.0,0.0,79,0.00,,,0.00,0,Wunderground v.1.15,2013-05-06 07:05:00,
2013-05-06 00:15:00,57.5,50.7,29.95,SE,126,2.0,2.0,78,0.00,,,0.00,0,Wunderground v.1.15,2013-05-06 07:15:00,
2013-05-06 00:25:00,57.2,50.1,29.95,SE,126,0.0,2.0,77,0.00,,,0.00,0,Wunderground v.1.15,2013-05-06 07:25:00,
2013-05-06 00:35:00,57.0,50.2,29.95,SSW,202,0.0,0.0,78,0.00,,,0.00,0,Wunderground v.1.15,2013-05-06 07:35:00,
2013-05-06 00:45:00,57.2,50.7,29.95,SSW,202,0.0,0.0,79,0.00,,,0.00,0,Wunderground v.1.15,2013-05-06 07:45:00,
2013-05-06 00:55:00,57.1,50.6,29.94,SSE,161,0.0,1.0,79,0.00,,,0.00,0,Wunderground v.1.15,2013-05-06 07:55:00,
2013-05-06 01:05:00,57.0,50.9,29.94,SSE,161,0.0,1.0,80,0.00,,,0.00,0,Wunderground v.1.15,2013-05-06 08:05:00,
2013-05-06 01:15:00,57.1,51.0,29.94,SSE,157,0.0,1.0,80,0.00,,,0.00,0,Wunderground v.1.15,2013-05-06 08:15:00,
2013-05-06 01:20:00,57.1,51.0,29.94,South,175,0.0,0.0,80,0.00,,,0.00,0,Wunderground v.1.15,2013-05-06 08:20:00,
2013-05-06 01:30:00,57.0,51.2,29.94,SSW,192,1.0,1.0,81,0.00,,,0.00,0,Wunderground v.1.15,2013-05-06 08:30:00,
2013-05-06 01:40:00,56.8,51.0,29.93,ESE,121,2.0,2.0,81,0.00,,,0.00,0,Wunderground v.1.15,2013-05-06 08:40:00,
2013-05-06 01:45:00,56.7,50.9,29.93,ESE,121,2.0,2.0,81,0.00,,,0.00,0,Wunderground v.1.15,2013-05-06 08:45:00,
2013-05-06 01:54:00,56.9,51.5,29.93,ENE,63,2.0,2.0,82,0.00,,,0.00,0,Wunderground v.1.15,2013-05-06 08:54:00,
2013-05-06 02:00:00,56.9,51.5,29.93,East,83,0.0,0.0,82,0.00,,,0.00,0,Wunderground v.1.15,2013-05-06 09:00:00,
2013-05-06 02:05:00,56.9,51.5,29.93,SE,134,1.0,1.0,82,0.00,,,0.00,0,Wunderground v.1.15,2013-05-06 09:05:00,
2013-05-06 02:15:00,56.7,51.3,29.93,SE,126,2.0,2.0,82,0.00,,,0.00,0,Wunderground v.1.15,2013-05-06 09:15:00,
2013-05-06 02:25:00,56.8,51.4,29.93,East,87,2.0,3.0,82,0.00,,,0.00,0,Wunderground v.1.15,2013-05-06 09:25:00,
2013-05-06 02:35:00,56.9,51.8,29.93,SE,130,3.0,3.0,83,0.00,,,0.00,0,Wunderground v.1.15,2013-05-06 09:35:00,
2013-05-06 02:40:00,56.9,51.8,29.92,ESE,112,1.0,1.0,83,0.00,,,0.00,0,Wunderground v.1.15,2013-05-06 09:40:00,
2013-05-06 02:50:00,57.0,51.9,29.92,SE,125,5.0,5.0,83,0.00,,,0.00,0,Wunderground v.1.15,2013-05-06 09:50:00,
2013-05-06 03:00:00,57.1,52.0,29.92,SSE,149,3.0,3.0,83,0.00,,,0.00,0,Wunderground v.1.15,2013-05-06 10:00:00,
2013-05-06 03:05:00,57.0,51.9,29.92,SSE,162,1.0,3.0,83,0.00,,,0.00,0,Wunderground v.1.15,2013-05-06 10:05:00,
2013-05-06 03:15:00,57.0,51.9,29.92,South,180,3.0,3.0,83,0.00,,,0.00,0,Wunderground v.1.15,2013-05-06 10:15:00,
2013-05-06 03:25:00,57.1,52.0,29.92,SE,126,0.0,2.0,83,0.00,,,0.00,0,Wunderground v.1.15,2013-05-06 10:25:00,
2013-05-06 03:30:00,57.1,52.0,29.92,SE,126,3.0,3.0,83,0.00,,,0.00,0,Wunderground v.1.15,2013-05-06 10:30:00,
2013-05-06 03:35:00,57.1,52.0,29.92,SE,126,2.0,3.0,83,0.00,,,0.00,0,Wunderground v.1.15,2013-05-06 10:35:00,
2013-05-06 03:45:00,57.2,52.1,29.92,SE,137,1.0,2.0,83,0.00,,,0.00,0,Wunderground v.1.15,2013-05-06 10:45:00,
2013-05-06 03:50:00,57.2,52.1,29.92,SE,134,2.0,2.0,83,0.00,,,0.00,0,Wunderground v.1.15,2013-05-06 10:50:00,
2013-05-06 04:00:00,57.2,52.1,29.91,SE,130,3.0,3.0,83,0.00,,,0.00,0,Wunderground v.1.15,2013-05-06 11:00:00,
2013-05-06 04:05:00,57.3,52.2,29.91,ESE,113,7.0,7.0,83,0.00,,,0.00,0,Wunderground v.1.15,2013-05-06 11:05:00,
2013-05-06 04:15:00,57.3,52.2,29.92,SSE,160,5.0,5.0,83,0.00,,,0.00,0,Wunderground v.1.15,2013-05-06 11:15:00,
2013-05-06 04:25:00,57.3,52.2,29.91,SE,131,5.0,5.0,83,0.00,,,0.00,0,Wunderground v.1.15,2013-05-06 11:25:00,
2013-05-06 04:35:00,57.2,52.1,29.91,SSW,201,2.0,2.0,83,0.00,,,0.00,0,Wunderground v.1.15,2013-05-06 11:35:00,
2013-05-06 04:40:00,57.2,52.1,29.92,SSE,167,2.0,2.0,83,0.00,,,0.00,0,Wunderground v.1.15,2013-05-06 11:40:00,
2013-05-06 04:50:00,57.0,51.9,29.92,South,175,1.0,1.0,83,0.00,,,0.00,0,Wunderground v.1.15,2013-05-06 11:50:00,
2013-05-06 04:55:00,56.9,51.8,29.92,SSE,163,2.0,2.0,83,0.00,,,0.00,0,Wunderground v.1.15,2013-05-06 11:55:00,
2013-05-06 05:05:00,57.2,52.4,29.92,South,178,5.0,5.0,84,0.00,,,0.00,0,Wunderground v.1.15,2013-05-06 12:05:00,
2013-05-06 05:15:00,57.3,52.5,29.93,SSE,148,1.0,1.0,84,0.00,,,0.00,0,Wunderground v.1.15,2013-05-06 12:15:00,
2013-05-06 05:20:00,57.2,52.1,29.93,SSW,211,0.0,0.0,83,0.00,,,0.00,0,Wunderground v.1.15,2013-05-06 12:20:00,
2013-05-06 05:30:00,57.2,52.4,29.93,SW,223,1.0,1.0,84,0.00,,,0.00,0,Wunderground v.1.15,2013-05-06 12:30:00,
2013-05-06 05:35:00,57.2,52.1,29.93,SSW,213,2.0,2.0,83,0.00,,,0.00,0,Wunderground v.1.15,2013-05-06 12:35:00,
2013-05-06 05:40:00,57.3,52.5,29.93,SSW,198,3.0,3.0,84,0.00,,,0.00,0,Wunderground v.1.15,2013-05-06 12:40:00,
2013-05-06 05:50:00,57.4,52.3,29.94,SW,223,0.0,0.0,83,0.00,,,0.00,0,Wunderground v.1.15,2013-05-06 12:50:00,
2013-05-06 06:00:00,57.5,52.4,29.94,East,93,0.0,0.0,83,0.00,,,0.00,0,Wunderground v.1.15,2013-05-06 13:00:00,
2013-05-06 06:05:00,57.6,52.8,29.94,ESE,102,0.0,0.0,84,0.00,,,0.00,0,Wunderground v.1.15,2013-05-06 13:05:00,
2013-05-06 06:15:00,57.6,52.8,29.94,ESE,102,0.0,0.0,84,0.00,,,0.00,0,Wunderground v.1.15,2013-05-06 13:15:00,
2013-05-06 06:25:00,57.7,52.9,29.94,ESE,102,0.0,0.0,84,0.00,,,0.00,0,Wunderground v.1.15,2013-05-06 13:25:00,
2013-05-06 06:35:00,57.7,52.6,29.94,ESE,102,0.0,0.0,83,0.00,,,0.00,0,Wunderground v.1.15,2013-05-06 13:35:00,
2013-05-06 06:40:00,57.7,52.9,29.95,ESE,102,2.0,2.0,84,0.00,,,0.00,0,Wunderground v.1.15,2013-05-06 13:40:00,
2013-05-06 06:50:00,57.9,53.1,29.95,ESE,102,3.0,3.0,84,0.00,,,0.00,0,Wunderground v.1.15,2013-05-06 13:50:00,
2013-05-06 06:55:00,58.1,53.3,29.95,ESE,102,0.0,3.0,84,0.00,,,0.00,0,Wunderground v.1.15,2013-05-06 13:55:00,
2013-05-06 07:05:00,58.2,53.4,29.96,South,179,3.0,3.0,84,0.00,,,0.00,0,Wunderground v.1.15,2013-05-06 14:05:00,
2013-05-06 07:15:00,58.4,53.6,29.96,South,191,1.0,1.0,84,0.00,,,0.00,0,Wunderground v.1.15,2013-05-06 14:15:00,
2013-05-06 07:20:00,58.4,53.3,29.96,South,187,1.0,1.0,83,0.00,,,0.00,0,Wunderground v.1.15,2013-05-06 14:20:00,
2013-05-06 07:30:00,58.5,53.7,29.96,SSE,167,2.0,2.0,84,0.00,,,0.00,0,Wunderground v.1.15,2013-05-06 14:30:00,
2013-05-06 07:35:00,58.5,53.7,29.96,SSE,167,0.0,2.0,84,0.00,,,0.00,0,Wunderground v.1.15,2013-05-06 14:35:00,
2013-05-06 07:45:00,58.6,53.8,29.96,SSE,167,2.0,2.0,84,0.00,,,0.00,0,Wunderground v.1.15,2013-05-06 14:45:00,
2013-05-06 07:54:00,58.5,53.7,29.97,SSW,196,0.0,3.0,84,0.00,,,0.00,0,Wunderground v.1.15,2013-05-06 14:54:00,
2013-05-06 08:00:00,58.6,53.8,29.97,SW,232,1.0,1.0,84,0.00,,,0.00,0,Wunderground v.1.15,2013-05-06 15:00:00,
2013-05-06 08:05:00,58.8,53.6,29.97,South,184,1.0,1.0,83,0.00,,,0.00,0,Wunderground v.1.15,2013-05-06 15:05:00,
2013-05-06 08:15:00,59.2,54.4,29.97,SSE,166,1.0,1.0,84,0.00,,,0.00,0,Wunderground v.1.15,2013-05-06 15:15:00,
2013-05-06 08:25:00,59.2,54.4,29.97,SSW,210,3.0,8.0,84,0.00,,,0.00,0,Wunderground v.1.15,2013-05-06 15:25:00,
2013-05-06 08:35:00,58.6,53.5,29.97,SW,226,1.0,10.0,83,0.00,,,0.00,0,Wunderground v.1.15,2013-05-06 15:35:00,
2013-05-06 08:45:00,57.8,52.7,29.97,SSW,203,7.0,7.0,83,0.00,,,0.00,0,Wunderground v.1.15,2013-05-06 15:45:00,
2013-05-06 08:55:00,57.6,52.5,29.97,SSW,206,2.0,2.0,83,0.00,,,0.00,0,Wunderground v.1.15,2013-05-06 15:55:00,
2013-05-06 09:05:00,58.6,53.8,29.97,WSW,243,1.0,2.0,84,0.00,,,0.00,0,Wunderground v.1.15,2013-05-06 16:05:00,
2013-05-06 09:10:00,58.7,53.5,29.97,SSW,213,5.0,5.0,83,0.00,,,0.00,0,Wunderground v.1.15,2013-05-06 16:10:00,
2013-05-06 09:20:00,58.5,53.4,29.98,SSW,210,2.0,2.0,83,0.00,,,0.00,0,Wunderground v.1.15,2013-05-06 16:20:00,
2013-05-06 09:30:00,58.5,53.4,29.99,WSW,245,1.0,1.0,83,0.00,,,0.00,0,Wunderground v.1.15,2013-05-06 16:30:00,
2013-05-06 09:40:00,58.7,53.5,29.99,SSW,196,0.0,0.0,83,0.00,,,0.00,0,Wunderground v.1.15,2013-05-06 16:40:00,
2013-05-06 09:45:00,58.8,53.3,29.99,South,188,2.0,2.0,82,0.00,,,0.00,0,Wunderground v.1.15,2013-05-06 16:45:00,
2013-05-06 09:55:00,58.9,53.1,30.00,South,174,2.0,3.0,81,0.00,,,0.00,0,Wunderground v.1.15,2013-05-06 16:55:00,
2013-05-06 10:00:00,59.1,53.3,29.99,SSW,199,0.0,0.0,81,0.00,,,0.00,0,Wunderground v.1.15,2013-05-06 17:00:00,
2013-05-06 10:10:00,60.3,54.1,30.00,SSE,153,3.0,3.0,80,0.00,,,0.00,0,Wunderground v.1.15,2013-05-06 17:10:00,
2013-05-06 10:20:00,60.0,53.1,30.00,SSE,154,2.0,2.0,78,0.00,,,0.00,0,Wunderground v.1.15,2013-05-06 17:20:00,
2013-05-06 10:30:00,59.9,52.7,30.00,South,177,2.0,2.0,77,0.00,,,0.00,0,Wunderground v.1.15,2013-05-06 17:30:00,
2013-05-06 10:35:00,60.1,53.2,30.00,South,185,5.0,5.0,78,0.00,,,0.00,0,Wunderground v.1.15,2013-05-06 17:35:00,
2013-05-06 10:45:00,60.6,53.3,30.00,SSW,199,5.0,5.0,77,0.00,,,0.00,0,Wunderground v.1.15,2013-05-06 17:45:00,
2013-05-06 10:55:00,60.5,52.5,30.00,SSW,207,0.0,5.0,75,0.00,,,0.00,0,Wunderground v.1.15,2013-05-06 17:55:00,
2013-05-06 11:00:00,60.7,52.7,30.00,SE,129,1.0,1.0,75,0.00,,,0.00,0,Wunderground v.1.15,2013-05-06 18:00:00,
2013-05-06 11:10:00,61.0,53.4,30.00,South,188,3.0,3.0,76,0.00,,,0.00,0,Wunderground v.1.15,2013-05-06 18:10:00,
2013-05-06 11:20:00,61.1,53.8,30.00,South,173,5.0,5.0,77,0.00,,,0.00,0,Wunderground v.1.15,2013-05-06 18:20:00,
2013-05-06 11:30:00,61.3,54.0,30.00,ESE,118,4.0,4.0,77,0.00,,,0.00,0,Wunderground v.1.15,2013-05-06 18:30:00,
2013-05-06 11:40:00,60.8,53.2,30.00,SE,127,3.0,3.0,76,0.00,,,0.00,0,Wunderground v.1.15,2013-05-06 18:40:00,
2013-05-06 11:45:00,60.3,52.3,30.00,SE,127,3.0,3.0,75,0.00,,,0.00,0,Wunderground v.1.15,2013-05-06 18:45:00,
2013-05-06 11:55:00,60.8,53.5,30.00,ESE,113,4.0,4.0,77,0.00,,,0.00,0,Wunderground v.1.15,2013-05-06 18:55:00,
2013-05-06 12:05:00,61.4,54.1,30.00,SE,127,2.0,2.0,77,0.00,,,0.00,0,Wunderground v.1.15,2013-05-06 19:05:00,
2013-05-06 12:10:00,61.4,53.8,30.00,SE,134,2.0,2.0,76,0.00,,,0.00,0,Wunderground v.1.15,2013-05-06 19:10:00,
2013-05-06 12:20:00,61.4,53.8,30.00,WSW,256,0.0,0.0,76,0.00,,,0.00,0,Wunderground v.1.15,2013-05-06 19:20:00,
2013-05-06 12:30:00,61.4,53.0,29.99,SSW,204,0.0,0.0,74,0.00,,,0.00,0,Wunderground v.1.15,2013-05-06 19:30:00,
2013-05-06 12:40:00,62.0,53.2,29.99,WSW,243,4.0,4.0,73,0.00,,,0.00,0,Wunderground v.1.15,2013-05-06 19:40:00,
2013-05-06 12:45:00,62.1,52.2,29.99,South,185,1.0,4.0,70,0.00,,,0.00,0,Wunderground v.1.15,2013-05-06 19:45:00,
2013-05-06 12:55:00,62.0,52.5,29.99,South,186,0.0,4.0,71,0.00,,,0.00,0,Wunderground v.1.15,2013-05-06 19:55:00,
2013-05-06 13:05:00,62.0,50.9,29.99,SSW,206,3.0,3.0,67,0.00,,,0.00,0,Wunderground v.1.15,2013-05-06 20:05:00,
2013-05-06 13:10:00,62.1,50.2,29.99,SSW,206,2.0,2.0,65,0.00,,,0.00,0,Wunderground v.1.15,2013-05-06 20:10:00,
2013-05-06 13:20:00,62.9,50.1,29.99,SW,218,0.0,0.0,63,0.00,,,0.00,0,Wunderground v.1.15,2013-05-06 20:20:00,
2013-05-06 13:30:00,63.6,49.5,29.99,South,171,2.0,2.0,60,0.00,,,0.00,0,Wunderground v.1.15,2013-05-06 20:30:00,
2013-05-06 13:35:00,63.6,49.5,29.99,South,178,1.0,2.0,60,0.00,,,0.00,0,Wunderground v.1.15,2013-05-06 20:35:00,
2013-05-06 13:45:00,63.5,51.1,29.99,South,190,5.0,5.0,64,0.00,,,0.00,0,Wunderground v.1.15,2013-05-06 20:45:00,
2013-05-06 13:55:00,63.0,50.6,30.00,SW,222,4.0,4.0,64,0.00,,,0.00,0,Wunderground v.1.15,2013-05-06 20:55:00,
2013-05-06 14:05:00,63.7,51.3,30.00,SSE,168,2.0,4.0,64,0.00,,,0.00,0,Wunderground v.1.15,2013-05-06 21:05:00,
2013-05-06 14:15:00,64.1,52.5,30.00,SW,224,0.0,2.0,66,0.00,,,0.00,0,Wunderground v.1.15,2013-05-06 21:15:00,
2013-05-06 14:25:00,63.4,52.7,29.99,SSW,193,0.0,2.0,68,0.00,,,0.00,0,Wunderground v.1.15,2013-05-06 21:25:00,
2013-05-06 14:35:00,62.9,52.6,29.99,SE,144,2.0,2.0,69,0.00,,,0.00,0,Wunderground v.1.15,2013-05-06 21:35:00,
2013-05-06 14:40:00,62.6,52.7,29.99,SE,125,2.0,2.0,70,0.00,,,0.00,0,Wunderground v.1.15,2013-05-06 21:40:00,
2013-05-06 14:45:00,62.4,52.9,29.99,SSW,210,0.0,2.0,71,0.00,,,0.00,0,Wunderground v.1.15,2013-05-06 21:45:00,
2013-05-06 14:55:00,62.6,52.7,29.99,SSW,200,0.0,3.0,70,0.00,,,0.00,0,Wunderground v.1.15,2013-05-06 21:55:00,
2013-05-06 15:05:00,62.8,52.9,29.99,South,183,0.0,0.0,70,0.00,,,0.00,0,Wunderground v.1.15,2013-05-06 22:05:00,
2013-05-06 15:15:00,63.0,52.3,29.99,SSW,206,2.0,2.0,68,0.00,,,0.00,0,Wunderground v.1.15,2013-05-06 22:15:00,
2013-05-06 15:20:00,62.7,52.4,29.99,SSE,151,3.0,3.0,69,0.00,,,0.00,0,Wunderground v.1.15,2013-05-06 22:20:00,
2013-05-06 15:30:00,63.3,53.3,29.99,South,190,2.0,2.0,70,0.00,,,0.00,0,Wunderground v.1.15,2013-05-06 22:30:00,
2013-05-06 15:35:00,63.7,52.9,29.99,SSW,208,1.0,2.0,68,0.00,,,0.00,0,Wunderground v.1.15,2013-05-06 22:35:00,
2013-05-06 15:45:00,63.0,52.7,29.98,South,182,2.0,2.0,69,0.00,,,0.00,0,Wunderground v.1.15,2013-05-06 22:45:00,
2013-05-06 15:50:00,62.8,52.9,29.98,South,183,9.0,9.0,70,0.00,,,0.00,0,Wunderground v.1.15,2013-05-06 22:50:00,
2013-05-06 15:55:00,62.5,53.0,29.98,SSE,149,1.0,9.0,71,0.00,,,0.00,0,Wunderground v.1.15,2013-05-06 22:55:00,
2013-05-06 16:05:00,62.0,52.5,29.98,SSE,154,1.0,1.0,71,0.00,,,0.00,0,Wunderground v.1.15,2013-05-06 23:05:00,
2013-05-06 16:14:00,61.6,52.5,29.98,SE,143,0.0,0.0,72,0.00,,,0.00,0,Wunderground v.1.15,2013-05-06 23:14:00,
2013-05-06 16:20:00,61.1,52.7,29.98,SSE,161,3.0,3.0,74,0.00,,,0.00,0,Wunderground v.1.15,2013-05-06 23:20:00,
2013-05-06 16:25:00,60.7,53.1,29.98,NE,46,0.0,3.0,76,0.00,,,0.00,0,Wunderground v.1.15,2013-05-06 23:25:00,
2013-05-06 16:30:00,60.7,53.4,29.98,East,94,1.0,1.0,77,0.00,,,0.00,0,Wunderground v.1.15,2013-05-06 23:30:00,
2013-05-06 16:35:00,60.8,53.9,29.98,SE,141,2.0,2.0,78,0.00,,,0.00,0,Wunderground v.1.15,2013-05-06 23:35:00,
2013-05-06 16:45:00,60.6,53.3,29.98,ESE,118,3.0,3.0,77,0.00,,,0.00,0,Wunderground v.1.15,2013-05-06 23:45:00,
2013-05-06 16:50:00,60.6,53.3,29.98,SSW,192,2.0,2.0,77,0.00,,,0.00,0,Wunderground v.1.15,2013-05-06 23:50:00,
2013-05-06 16:55:00,60.5,52.9,29.98,SSE,159,2.0,2.0,76,0.00,,,0.00,0,Wunderground v.1.15,2013-05-06 23:55:00,
2013-05-06 17:05:00,60.4,53.2,29.98,ESE,112,1.0,1.0,77,0.00,,,0.00,0,Wunderground v.1.15,2013-05-07 00:05:00,
2013-05-06 17:15:00,60.6,53.7,29.98,ESE,122,2.0,2.0,78,0.00,,,0.00,0,Wunderground v.1.15,2013-05-07 00:15:00,
2013-05-06 17:20:00,60.7,53.8,29.98,South,175,1.0,1.0,78,0.00,,,0.00,0,Wunderground v.1.15,2013-05-07 00:20:00,
2013-05-06 17:30:00,60.6,53.3,29.98,South,184,2.0,2.0,77,0.00,,,0.00,0,Wunderground v.1.15,2013-05-07 00:30:00,
2013-05-06 17:35:00,60.6,53.3,29.98,SSW,201,1.0,2.0,77,0.00,,,0.00,0,Wunderground v.1.15,2013-05-07 00:35:00,
2013-05-06 17:45:00,60.8,53.2,29.98,SSW,201,4.0,4.0,76,0.00,,,0.00,0,Wunderground v.1.15,2013-05-07 00:45:00,
2013-05-06 17:50:00,60.7,52.7,29.98,SSW,206,1.0,1.0,75,0.00,,,0.00,0,Wunderground v.1.15,2013-05-07 00:50:00,
2013-05-06 17:55:00,60.7,52.7,29.98,South,190,0.0,1.0,75,0.00,,,0.00,0,Wunderground v.1.15,2013-05-07 00:55:00,
2013-05-06 18:00:00,60.6,53.0,29.98,SSE,161,0.0,0.0,76,0.00,,,0.00,0,Wunderground v.1.15,2013-05-07 01:00:00,
2013-05-06 18:05:00,60.6,52.6,29.98,South,173,2.0,2.0,75,0.00,,,0.00,0,Wunderground v.1.15,2013-05-07 01:05:00,
2013-05-06 18:15:00,60.4,52.8,29.98,NE,42,0.0,2.0,76,0.00,,,0.00,0,Wunderground v.1.15,2013-05-07 01:15:00,
2013-05-06 18:20:00,60.6,53.0,29.98,South,183,3.0,3.0,76,0.00,,,0.00,0,Wunderground v.1.15,2013-05-07 01:20:00,
2013-05-06 18:29:00,60.5,52.9,29.98,SSW,199,1.0,1.0,76,0.00,,,0.00,0,Wunderground v.1.15,2013-05-07 01:29:00,
2013-05-06 18:35:00,60.4,52.8,29.98,SSW,197,0.0,1.0,76,0.00,,,0.00,0,Wunderground v.1.15,2013-05-07 01:35:00,
2013-05-06 18:45:00,60.5,53.3,29.98,East,83,1.0,1.0,77,0.00,,,0.00,0,Wunderground v.1.15,2013-05-07 01:45:00,
2013-05-06 18:50:00,60.5,52.9,29.98,South,190,1.0,1.0,76,0.00,,,0.00,0,Wunderground v.1.15,2013-05-07 01:50:00,
2013-05-06 18:55:00,60.3,53.1,29.98,SSE,157,1.0,1.0,77,0.00,,,0.00,0,Wunderground v.1.15,2013-05-07 01:55:00,
2013-05-06 19:05:00,60.0,52.8,29.98,South,190,2.0,2.0,77,0.00,,,0.00,0,Wunderground v.1.15,2013-05-07 02:05:00,
2013-05-06 19:15:00,59.9,53.0,29.98,South,174,0.0,0.0,78,0.00,,,0.00,0,Wunderground v.1.15,2013-05-07 02:15:00,
2013-05-06 19:20:00,59.9,53.0,29.98,SSE,164,1.0,1.0,78,0.00,,,0.00,0,Wunderground v.1.15,2013-05-07 02:20:00,
2013-05-06 19:30:00,59.8,52.9,29.98,South,189,0.0,0.0,78,0.00,,,0.00,0,Wunderground v.1.15,2013-05-07 02:30:00,
2013-05-06 19:35:00,59.8,52.9,29.99,South,189,0.0,0.0,78,0.00,,,0.00,0,Wunderground v.1.15,2013-05-07 02:35:00,
2013-05-06 19:45:00,59.6,52.7,29.99,South,177,0.0,2.0,78,0.00,,,0.00,0,Wunderground v.1.15,2013-05-07 02:45:00,
2013-05-06 19:50:00,59.6,52.7,29.99,South,177,0.0,0.0,78,0.00,,,0.00,0,Wunderground v.1.15,2013-05-07 02:50:00,
2013-05-06 19:55:00,59.6,52.7,29.99,South,177,1.0,1.0,78,0.00,,,0.00,0,Wunderground v.1.15,2013-05-07 02:55:00,
2013-05-06 20:05:00,59.5,52.6,29.99,South,177,1.0,1.0,78,0.00,,,0.00,0,Wunderground v.1.15,2013-05-07 03:05:00,
2013-05-06 20:15:00,59.5,52.6,29.99,South,177,0.0,0.0,78,0.00,,,0.00,0,Wunderground v.1.15,2013-05-07 03:15:00,
2013-05-06 20:20:00,59.5,52.6,29.99,South,177,0.0,0.0,78,0.00,,,0.00,0,Wunderground v.1.15,2013-05-07 03:20:00,
2013-05-06 20:30:00,59.6,52.7,30.00,South,177,0.0,0.0,78,0.00,,,0.00,0,Wunderground v.1.15,2013-05-07 03:30:00,
2013-05-06 20:35:00,59.5,52.6,30.00,South,177,0.0,0.0,78,0.00,,,0.00,0,Wunderground v.1.15,2013-05-07 03:35:00,
2013-05-06 20:45:00,59.5,52.6,30.00,South,177,0.0,0.0,78,0.00,,,0.00,0,Wunderground v.1.15,2013-05-07 03:45:00,
2013-05-06 20:50:00,59.5,52.6,30.00,South,177,0.0,0.0,78,0.00,,,0.00,0,Wunderground v.1.15,2013-05-07 03:50:00,
2013-05-06 21:00:00,59.6,52.7,30.00,South,177,1.0,1.0,78,0.00,,,0.00,0,Wunderground v.1.15,2013-05-07 04:00:00,
2013-05-06 21:05:00,59.6,52.7,30.00,South,177,2.0,2.0,78,0.00,,,0.00,0,Wunderground v.1.15,2013-05-07 04:05:00,
2013-05-06 21:10:00,59.5,52.6,30.01,South,177,0.0,0.0,78,0.00,,,0.00,0,Wunderground v.1.15,2013-05-07 04:10:00,
2013-05-06 21:15:00,59.5,52.6,30.00,South,177,0.0,0.0,78,0.00,,,0.00,0,Wunderground v.1.15,2013-05-07 04:15:00,
2013-05-06 21:19:00,59.4,52.9,30.01,South,177,0.0,0.0,79,0.00,,,0.00,0,Wunderground v.1.15,2013-05-07 04:19:00,
2013-05-06 21:25:00,59.4,52.9,30.01,South,177,0.0,0.0,79,0.00,,,0.00,0,Wunderground v.1.15,2013-05-07 04:25:00,
2013-05-06 21:30:00,59.4,52.9,30.01,South,177,0.0,0.0,79,0.00,,,0.00,0,Wunderground v.1.15,2013-05-07 04:30:00,
2013-05-06 21:40:00,59.3,52.8,30.01,South,177,0.0,0.0,79,0.00,,,0.00,0,Wunderground v.1.15,2013-05-07 04:40:00,
2013-05-06 21:45:00,59.3,52.8,30.02,South,177,0.0,0.0,79,0.00,,,0.00,0,Wunderground v.1.15,2013-05-07 04:45:00,
2013-05-06 21:50:00,59.4,52.9,30.02,South,177,3.0,3.0,79,0.00,,,0.00,0,Wunderground v.1.15,2013-05-07 04:50:00,
2013-05-06 22:00:00,59.4,52.9,30.02,South,177,1.0,1.0,79,0.00,,,0.00,0,Wunderground v.1.15,2013-05-07 05:00:00,
2013-05-06 22:05:00,59.4,52.9,30.02,South,177,0.0,1.0,79,0.00,,,0.00,0,Wunderground v.1.15,2013-05-07 05:05:00,
2013-05-06 22:15:00,59.4,53.2,30.02,South,177,0.0,0.0,80,0.00,,,0.00,0,Wunderground v.1.15,2013-05-07 05:15:00,
2013-05-06 22:25:00,59.3,52.8,30.02,South,177,0.0,0.0,79,0.00,,,0.00,0,Wunderground v.1.15,2013-05-07 05:25:00,
2013-05-06 22:30:00,59.3,52.8,30.02,South,177,0.0,0.0,79,0.00,,,0.00,0,Wunderground v.1.15,2013-05-07 05:30:00,
2013-05-06 22:40:00,59.3,53.1,30.02,South,177,0.0,0.0,80,0.00,,,0.00,0,Wunderground v.1.15,2013-05-07 05:40:00,
2013-05-06 22:45:00,59.2,53.0,30.02,South,177,0.0,0.0,80,0.00,,,0.00,0,Wunderground v.1.15,2013-05-07 05:45:00,
2013-05-06 22:50:00,59.2,53.0,30.02,South,177,0.0,0.0,80,0.00,,,0.00,0,Wunderground v.1.15,2013-05-07 05:50:00,
2013-05-06 22:55:00,59.2,53.0,30.02,South,177,0.0,0.0,80,0.00,,,0.00,0,Wunderground v.1.15,2013-05-07 05:55:00,
2013-05-06 23:05:00,59.2,53.4,30.02,South,177,0.0,0.0,81,0.00,,,0.00,0,Wunderground v.1.15,2013-05-07 06:05:00,
2013-05-06 23:15:00,59.1,52.9,30.02,South,177,0.0,0.0,80,0.00,,,0.00,0,Wunderground v.1.15,2013-05-07 06:15:00,
2013-05-06 23:20:00,59.1,52.9,30.02,South,177,0.0,0.0,80,0.00,,,0.00,0,Wunderground v.1.15,2013-05-07 06:20:00,
2013-05-06 23:25:00,59.1,52.9,30.02,South,177,0.0,0.0,80,0.00,,,0.00,0,Wunderground v.1.15,2013-05-07 06:25:00,
2013-05-06 23:30:00,59.0,53.2,30.02,South,177,0.0,0.0,81,0.00,,,0.00,0,Wunderground v.1.15,2013-05-07 06:30:00,
2013-05-06 23:40:00,59.1,52.9,30.02,South,177,0.0,0.0,80,0.00,,,0.00,0,Wunderground v.1.15,2013-05-07 06:40:00,
2013-05-06 23:50:00,59.1,52.9,30.02,South,177,0.0,0.0,80,0.00,,,0.00,0,Wunderground v.1.15,2013-05-07 06:50:00,
2013-05-06 23:55:00,59.0,52.8,30.02,South,177,0.0,0.0,80,0.00,,,0.00,0,Wunderground v.1.15,2013-05-07 06:55:00,